OPS 8737

Satellite information

Favourite Embed

Satellite Type and Status

PAYLOADIN ORBIT

Key statistics

Satellite OPS 8737 at a glance.

Uptime

15130

Days in orbit

Revolutions

≈ 14.1

Per day

Orbit

LEO

Low Earth Orbit

Inclination

63.3

Latest

Satellite identification and parameters

Extended collection of information and parameters for OPS 8737.

Object identification

Identified? True

Debris? False

Object name: OPS 8737

International designator: 1984-012A

Object number (NORAD): 14690

Object ID (CCSDS): 14690

Country: UNITED STATES OF AMERICA (US)

Current information (Y/N): Y

RCS size: LARGE

Orbital parameters

Period: 102.351 minutes

Inclination: 63.2985 deg

SMA: 7248.073 km

Apoapsis: 1362.364 km

Periapsis: 377.513 km

RAAN: 61.0593 deg

Eccentricy: 0.0679388

Argument of periapsis: 118.7537 deg

Mean anomaly: 248.3501 deg

Mean motion: 14.06918352 rev/day

Mean motion (dot): 0.0001045 rev/day2

B* drag term: 0.00065661 1/REarth

Two-line elements (TLE)

Creation date: July 9, 2025, 2:22 a.m.

Reference frame: TEME

Reference center: EARTH

Epoch: July 8, 2025, 8:48 p.m. UTC

TLE line 0: 0 OPS 8737

TLE line 1: 1 14690U 84012A 25189.86679223 .00010450 00000-0 65661-3 0 9990

TLE line 2: 2 14690 63.2985 61.0593 0679388 118.7537 248.3501 14.06918352 59503

Live tracking on map

Real-time ground track for satellite OPS 8737.

In-orbit conjunctions

There are no conjunctions computed for OPS 8737, at the moment. Check back to stay up to date, as we update our databases every day.

Go to all conjunctions

Associated space launch

The Parcae satellites were passive ELINT satellites. MSD satellites were dispensers of triplets of ocean surveillance satellites.

OPS 8737 was lifted into orbit during the mission ‘Atlas H | Parcae 7A,B,C & MSD 7’, on board a Atlas H space rocket.

The launch took place on Feb. 5, 1984, 6:44 p.m. from Space Launch Complex 3E.

For more information about the launch, click the button.

Launch to space Atlas H | Parcae 7A,B,C & MSD 7
Atlas H | Parcae 7A,B,C & MSD 7

Agency: N/A

Status: Launch Successful

Launch date: Feb. 5, 1984, 6:44 p.m. UTC

Rocket: Atlas H

Launch pad: Space Launch Complex 3E

Location: Vandenberg SFB, CA, USA

...

Latest news about this satellite

There are no fresh news available about this satellite. Check back as we update our databases every day.


Newsletter sign-up

Weekly statistics, charts and insights to help you stay on top of the space industry.